Regional Weather Roundup
Issued by NWS Grand Forks, ND

Home | Current Version | Previous Version | Text Only | Print | Product List | Glossary Off
Versions: 1 2 3 4 5 6 7 8 9 10 11 12 13 14 15 16 17 18 19 20 21 22 23 24 25 26 27 28 29 30 31 32 33 34 35 36 37 38 39 40 41 42 43 44 45 46 47 48 49 50

000
ASUS43 KFGF 180031
RWRFGF
PRAIRIE TO PINES  WEATHER ROUNDUP
NATIONAL WEATHER SERVICE EASTERN NORTH DAKOTA/GRAND FORKS ND
600 PM CST FRI NOV 17 2017

 **SATELLITE DATA USED TO AUGMENT SKY COVER AT AUTOMATED STATIONS**
 *****  WEATHER ACROSS EASTERN NORTH DAKOTA  *****

CITY           SKY/WX    TMP DP  RH WIND       PRES   REMARKS
GRAND FORKS    MOCLDY    18  14  84 NW3       29.75R
6HR MIN TEMP:  18; 6HR MAX TEMP:  26;

GRAND FRKS AFB PTCLDY    15  12  88 CALM      29.74R
GRAND FRKS NWS   N/A     19 N/A N/A MISG        N/A
DEVILS LAKE    FAIR      18  15  88 NW5       29.71F WCI  11
6HR MIN TEMP:  17; 6HR MAX TEMP:  22;

FARGO          FAIR      28  19  69 NW9       29.73R WCI  19
WAHPETON ARPT  NOT AVBL
$$

 ***** WEATHER ACROSS CENTRAL AND WESTERN NORTH DAKOTA  *****

CITY           SKY/WX    TMP DP  RH WIND       PRES   REMARKS
BISMARCK       FAIR      31  24  75 NE3       29.73R
6HR MIN TEMP:  31; 6HR MAX TEMP:  37;

MINOT          FAIR      18  12  77 CALM      29.71R
6HR MIN TEMP:  18; 6HR MAX TEMP:  28;

JAMESTOWN      FAIR      24  18  77 N9        29.70F WCI  14
6HR MIN TEMP:  24; 6HR MAX TEMP:  30;

MINOT AFB      FAIR      19  12  74 CALM      29.71R
GARRISON         N/A     24  20  84 CALM      29.70R
WILLISTON      FAIR      26  19  74 N7        29.70R WCI  18
6HR MIN TEMP:  25; 6HR MAX TEMP:  36;

DICKINSON      FAIR      30  22  72 S6        29.66R WCI  24
6HR MIN TEMP:  30; 6HR MAX TEMP:  43;

HETTINGER      MOCLDY    35  28  75 CALM      29.69R
6HR MIN TEMP:  35; 6HR MAX TEMP:  44;

$$

 *****  OTHER AIRPORT OBSERVATIONS IN OUR AREA  *****

CITY           SKY/WX    TMP DP  RH WIND       PRES   REMARKS
WALHALLA       FAIR      18  18 100 W5        29.75R WCI  11
GRAFTON AIRPOR FAIR      18  16  93 CALM      29.77R
VALLEY CITY AR FAIR      23  19  86 N8        29.73S WCI  14
CANDO          FAIR      16  16 100 NW7       29.74S WCI   6
CAVALIER APRT  FAIR      14   9  79 NW5       29.75R WCI   6
GWINNER          N/A     28  19  69 N10       29.71R WCI  19
SHEYENNE NWR     N/A     30  20  66 N7        29.95S WCI  23
ROLLA          FAIR      12  10  92 N6        29.70S WCI   3
 ***** THE ABOVE OBSERVATIONS ARE NON NWS ARE NOT QUALITY
       CONTROLLED AND MAY MIS-REPORT RAIN FOR SNOW...
$$

  *****  WEATHER ACROSS NORTHERN MINNESOTA  *****

CITY           SKY/WX    TMP DP  RH WIND       PRES   REMARKS
FLAG ISLAND    FAIR      21  16  79 W7        29.68R WCI  13
WARROAD        FAIR      21  16  79 NW5       29.71R WCI  15
ROSEAU         FAIR      19  16  86 W6        29.72R WCI  11
HALLOCK        FAIR      18  14  86 NW5       29.75R WCI  11
THF RVR FALLS  FAIR      19  15  84 NW7       29.73R WCI  10
6HR MIN TEMP:  19; 6HR MAX TEMP:  29;

BAUDETTE       FAIR      23  17  78 W7        29.68R WCI  15
6HR MIN TEMP:  23; 6HR MAX TEMP:  35;

WASKISH        FAIR      27  21  80 NW6       29.69R WCI  20
CROOKSTON      FAIR      19  18  93 N6        29.75R WCI  11
STEPHEN NDAWN    N/A     18  14  86 NW2         N/A
GREENBUSH NDAW   N/A     18  14  86 NW3         N/A
$$
  *****  WEATHER ACROSS CENTRAL AND WEST MINNESOTA  *****

CITY           SKY/WX    TMP DP  RH WIND       PRES   REMARKS
FOSSTON        FAIR      21  18  86 NW5       29.71R WCI  15
BEMIDJI        FAIR      27  21  77 NW7       29.68R WCI  19
6HR MIN TEMP:  28; 6HR MAX TEMP:  37;

PARK RAPIDS    FAIR      33  28  81 NW8       29.66R
6HR MIN TEMP:  32; 6HR MAX TEMP:  40;

ELBOW LAKE     CLOUDY    32  27  83 W8        29.68S WCI  25
WADENA         FAIR      34  28  80 NW6       29.66S
DETROIT LAKES  FAIR      28  23  80 NW10      29.69F WCI  19
MOORHEAD       FAIR      28  18  64 CALM      29.74S
FERGUS FALLS   FAIR      30  21  69 N9        29.72R WCI  22
MORRIS MN      CLOUDY    34  30  86 NW8       29.67R
STAPLES          N/A     30  30 100 CALM      29.66S
$$
  *****  WEATHER ELSEWHERE ACROSS MINNESOTA  *****

CITY           SKY/WX    TMP DP  RH WIND       PRES   REMARKS
DULUTH         MOCLDY    31  31 100 W3        29.64R FOG
6HR MIN TEMP:  32; 6HR MAX TEMP:  33; 6HR PCP:  0.05;

INTRNTL FALLS  FAIR      30  23  75 NW12      29.66R WCI  20
6HR MIN TEMP:  30; 6HR MAX TEMP:  37;

ELY            CLOUDY    32  32 100 CALM      29.63R
CLOQUET        MOCLDY    32  30  93 CALM      29.65R FOG
WHEATON        CLOUDY    32  27  80 N6        29.71S
BRAINERD       FAIR      33  31  92 CALM      29.66R
6HR MIN TEMP:  33; 6HR MAX TEMP:  38; 6HR PCP:  0.02;

HIBBING        CLOUDY    32  31  96 W3        29.65R FOG
6HR MIN TEMP:  31; 6HR MAX TEMP:  33; 6HR PCP: TRACE;

ALEXANDRIA     CLOUDY    35  32  88 NW5       29.67R
6HR MIN TEMP:  35; 6HR MAX TEMP:  40; 6HR PCP:  0.02;

SAINT CLOUD    CLOUDY    35  35 100 N3        29.65F FOG
6HR MIN TEMP:  35; 6HR MAX TEMP:  40; 6HR PCP:  0.01;

MINNEAPOLIS    CLOUDY    38  38 100 N3        29.65S FOG
6HR MIN TEMP:  37; 6HR MAX TEMP:  38; 6HR PCP:  0.04;

$$

  *****  WEATHER ACROSS SOUTH DAKOTA  *****

CITY           SKY/WX    TMP DP  RH WIND       PRES   REMARKS
SIOUX FALLS    CLOUDY    44  34  67 NE9       29.63R
6HR MIN TEMP:  44; 6HR MAX TEMP:  51; 6HR PCP: TRACE;

BROOKINGS      FAIR      37  31  78 N9        29.66R
WATERTOWN      MOCLDY    35  30  82 NE8       29.65R
6HR MIN TEMP:  35; 6HR MAX TEMP:  45;

HURON          CLOUDY    42  30  62 N10       29.66S
6HR MIN TEMP:  42; 6HR MAX TEMP:  50;

SISSETON         N/A     33  25  72 N8        29.68R
ABERDEEN       CLOUDY    35  22  58 N8        29.70S
6HR MIN TEMP:  35; 6HR MAX TEMP:  45;

MITCHELL       FAIR      43  33  68 N8        29.67R
PIERRE         CLOUDY    41  35  79 N7        29.70R
6HR MIN TEMP:  40; 6HR MAX TEMP:  45;

MOBRIDGE       CLOUDY    38  27  64 N7        29.67R
RAPID CITY     CLOUDY    38  37  97 N7        29.70R
6HR MIN TEMP:  38; 6HR MAX TEMP:  43; 6HR PCP: TRACE;

$$

  *****  SOME WEATHER IN NEARBY STATES *****

CITY           SKY/WX    TMP DP  RH WIND       PRES   REMARKS
GLASGOW MT     FAIR      32  23  69 W6        29.70R
6HR MIN TEMP:  32; 6HR MAX TEMP:  42;

GREAT FALLS MT FAIR      34  17  50 W17       29.79R WCI  23
6HR MIN TEMP:  34; 6HR MAX TEMP:  45;

CHEYENNE WY    MOCLDY    37  31  78 NW14G24   29.68F
6HR MIN TEMP:  37; 6HR MAX TEMP:  53; 6HR PCP:  0.11;

SCOTTSBLUFF NE CLOUDY    45  37  73 CALM      29.66R
6HR MIN TEMP:  45; 6HR MAX TEMP:  52; 6HR PCP:  0.01;

OMAHA NE       CLOUDY    57  51  80 N8        29.53R
6HR MIN TEMP:  56; 6HR MAX TEMP:  61;

DES MOINES IA  DRIZZLE   51  49  92 NE3       29.54R FOG
6HR MIN TEMP:  47; 6HR MAX TEMP:  52; 6HR PCP: TRACE;

DAVENPORT IA   CLOUDY    45  42  89 S8        29.61F FOG
6HR MIN TEMP:  39; 6HR MAX TEMP:  45; 6HR PCP: TRACE;

CHICAGO IL     CLOUDY    42  39  89 S16       29.67F FOG
6HR MIN TEMP:  40; 6HR MAX TEMP:  45; 6HR PCP:  0.03;

EAU CLAIRE WI  CLOUDY    37  36  96 CALM      29.63R FOG
6HR MIN TEMP:  35; 6HR MAX TEMP:  37; 6HR PCP:  0.06;

LA CROSSE WI   CLOUDY    39  38  96 E5        29.62S
6HR MIN TEMP:  38; 6HR MAX TEMP:  39; 6HR PCP:  0.09;

$$

  *****  SOME NATIONAL WEATHER *****

CITY           SKY/WX    TMP DP  RH WIND       PRES   REMARKS
LA GUARDIA NY  FAIR      45  19  35 NW17      30.08R
6HR MIN TEMP:  45; 6HR MAX TEMP:  49;

RALEIGH NC     FAIR      42  34  73 VRB3      30.15F
6HR MIN TEMP:  41; 6HR MAX TEMP:  57;

ATLANTA GA     FAIR      58  44  60 SE5       30.09S
6HR MIN TEMP:  58; 6HR MAX TEMP:  66;

NEW ORLEANS LA FAIR      70  63  78 S7        30.02S
6HR MIN TEMP:  70; 6HR MAX TEMP:  78;

OKLAHOMA CITY  MOCLDY    74  52  46 S14       29.60S
6HR MIN TEMP:  74; 6HR MAX TEMP:  82;

ALBUQUERQUE NM MOCLDY    64  34  32 W23G35    29.96R
6HR MIN TEMP:  64; 6HR MAX TEMP:  73;

SALT LAKE CITY MOCLDY    41  33  73 NW8       30.06R
6HR MIN TEMP:  37; 6HR MAX TEMP:  41; 6HR PCP:  0.17;

LOS ANGELES CA FAIR


USA.gov is the U.S. government's official web portal to all federal, state and local government web resources and services.